Latham, NY

4:14 PM EDT on August 28, 2016 (GMT -0400)
Albany International

Weather History for KALB - August, 2014

Change the Weather History Date:

Friday, August 1, 2014

  Actual Average Record
Temperature  
Mean Temperature 72 °F 72 °F  
Max Temperature 84 °F 82 °F 101 °F (1933)
Min Temperature 59 °F 62 °F 46 °F (1964)
Degree Days  
Heating Degree Days 0 0  
Month to date heating degree days 0 0  
Since 1 June heating degree days 12 57  
Since 1 July heating degree days 0 5  
Cooling Degree Days 7 7  
Month to date cooling degree days 7 7  
Year to date cooling degree days 427 373  
Since 1 June cooling degree days 392 343  
Growing Degree Days 22 (Base 50)    
Moisture  
Dew Point 62 °F    
Average Humidity 76    
Maximum Humidity 100    
Minimum Humidity 51    
Precipitation  
Precipitation T in 0.13 in 1.41 in (2003)
Month to date precipitation T 0.13  
Year to date precipitation 25.20 22.82  
Sea Level Pressure  
Sea Level Pressure 30.16 in    
Wind  
Wind Speed 7 mph (South)    
Max Wind Speed 21 mph    
Max Gust Speed 26 mph    
Visibility 10 miles    
Events Fog , Rain    
T = Trace of Precipitation, MM = Missing Value Source: NWS Daily Summary

Daily Weather History Graph

Daily Weather History Graph

Search for Another Location

Airport or City:

Trip Planner

Search our weather history database for the weather conditions in past years. The results will help you decide how hot, cold, wet, or windy it might be!

Date:

Astronomy

Aug. 01, 2014 Rise Set
Actual Time 5:46 AM EDT 8:15 PM EDT
Civil Twilight 5:14 AM EDT 8:47 PM EDT
Nautical Twilight 4:34 AM EDT 9:27 PM EDT
Astronomical Twilight 3:49 AM EDT 10:12 PM EDT
Moon 11:16 AM EDT (8/1) 10:49 PM EDT (8/1)
Length of Visible Light 15h 33m
Length of Day
14h 29m
Waxing Crescent, 27% of the Moon is Illuminated
Aug 1
Waxing Crescent
Aug 3
First Quarter
Aug 10
Full
Aug 17
Last Quarter
Aug 25
New

Hourly Weather History & Observations

Time (EDT) Temp. Heat Index Dew Point Humidity Pressure Visibility Wind Dir Wind Speed Gust Speed Precip Events Conditions
12:44 AM 63.0 °F - 62.1 °F 97% 30.14 in 10.0 mi Calm Calm - N/A Fog Patches of Fog
12:51 AM 63.0 °F - 62.1 °F 97% 30.14 in 10.0 mi Calm Calm - N/A Fog Patches of Fog
1:51 AM 62.1 °F - 60.1 °F 93% 30.14 in 9.0 mi Calm Calm - N/A Fog Patches of Fog
2:51 AM 62.1 °F - 60.1 °F 93% 30.14 in 8.0 mi Calm Calm - N/A Fog Partly Cloudy
3:51 AM 61.0 °F - 59.0 °F 93% 30.15 in 10.0 mi Calm Calm - N/A Fog Shallow Fog
4:51 AM 63.0 °F - 60.1 °F 90% 30.14 in 10.0 mi Calm Calm - 0.00 in Rain Light Rain
5:51 AM 64.0 °F - 61.0 °F 90% 30.15 in 10.0 mi SSW 3.5 mph - 0.00 in Fog Patches of Fog
6:51 AM 64.9 °F - 62.1 °F 90% 30.17 in 7.0 mi SSW 4.6 mph - N/A   Mostly Cloudy
7:51 AM 66.0 °F - 62.1 °F 87% 30.19 in 9.0 mi SSW 3.5 mph - 0.00 in   Mostly Cloudy
8:51 AM 69.1 °F - 63.0 °F 81% 30.19 in 9.0 mi South 8.1 mph - N/A   Mostly Cloudy
9:51 AM 72.0 °F - 64.0 °F 76% 30.19 in 9.0 mi SSE 9.2 mph - N/A   Mostly Cloudy
10:51 AM 73.0 °F - 64.0 °F 73% 30.19 in 10.0 mi SE 6.9 mph - N/A   Mostly Cloudy
11:51 AM 75.9 °F - 64.0 °F 67% 30.19 in 10.0 mi SSE 6.9 mph - N/A   Mostly Cloudy
12:51 PM 78.1 °F - 64.9 °F 64% 30.18 in 10.0 mi SE 4.6 mph - N/A   Mostly Cloudy
1:51 PM 81.0 °F 82.2 °F 63.0 °F 54% 30.17 in 10.0 mi South 6.9 mph - N/A   Mostly Cloudy
2:51 PM 82.9 °F 84.4 °F 64.0 °F 53% 30.16 in 10.0 mi SSW 10.4 mph - N/A   Mostly Cloudy
3:51 PM 82.9 °F 83.7 °F 62.1 °F 49% 30.14 in 10.0 mi SSE 5.8 mph - N/A   Mostly Cloudy
4:51 PM 82.4 °F 83.4 °F 62.6 °F 51% 30.14 in 10.0 mi SSE 10.4 mph - N/A   Overcast
5:51 PM 81.0 °F 82.7 °F 64.9 °F 58% 30.14 in 10.0 mi South 11.5 mph - N/A   Overcast
6:51 PM 77.0 °F - 60.1 °F 56% 30.15 in 10.0 mi South 10.4 mph - N/A   Overcast
7:51 PM 75.0 °F - 61.0 °F 62% 30.16 in 10.0 mi South 15.0 mph - N/A   Overcast
8:51 PM 73.0 °F - 62.1 °F 68% 30.17 in 10.0 mi SSE 10.4 mph - N/A   Overcast
9:51 PM 72.0 °F - 62.1 °F 71% 30.19 in 10.0 mi SSE 8.1 mph - N/A   Mostly Cloudy
10:51 PM 71.1 °F - 63.0 °F 75% 30.19 in 10.0 mi South 8.1 mph - N/A   Overcast
11:51 PM 71.1 °F - 64.0 °F 78% 30.19 in 10.0 mi South 4.6 mph - N/A   Overcast